Torna al catalogo

STARLINK-32036

AttivoComunicazioniVLEO
NORAD 60141·PAYLOAD·🇺🇸 United States

Lanciato Jun 27, 2024 da Cape Canaveral Space Force Station

Loading…

Prossimi Passaggi (prossime 24 ore)

TLE

AggiornatoSource: CelesTrak SupGP

Epoca: Sep 14, 2026, 20:48 UTC

1 60141C 24120G   26257.86715278 -.00031344  00000+0 -92563-3 0  2578
2 60141  53.1571 158.3026 0001219 104.5932 168.6721 15.34421065    11

Traccia STARLINK-32036 in tempo reale con AllMySat

Download on the App Store